Home   Weather   42°59'N, 96°02'W   Past weeks
Flag for USA

Past Weather in 42°59'N, 96°02'W, USA — Yesterday and Last 2 Weeks

Now
60 °F

Thunderstorms. More clouds than sun.


Feels Like: 60 °F
Forecast: 77 / 65 °F
Wind: 24 mph from East

Location: Foss Field

Current Time: Jul 20, 2019 at 11:15:24 am

Latest Report: Jul 20, 2019 at 10:36 am


Visibility: 2 mi

Pressure: 29.84 "Hg

Humidity: 80%

Dew Point: 54 °F

Location of 42°59'N, 96°02'WLocation

Past Weather in 42°59'N, 96°02'W — Graph

°F

42°59'N, 96°02'W Temperature Yesterday

Maximum temperature yesterday: 95 °F (at 5:56 pm)
Minimum temperature yesterday: 74 °F (at 2:56 am)
Average temperature yesterday: 83 °F

High & Low Weather Summary for the Past Weeks

 TemperatureHumidityPressure
High95 °F (Jul 19, 5:56 pm)97% (Jul 9, 8:39 am)30.21 "Hg (Jul 9, 8:39 am)
Low58 °F (Jul 11, 5:56 am)50% (Jul 15, 3:56 pm)29.58 "Hg (Jul 18, 6:56 pm)
Average77 °F75%29.89 "Hg
* Reported Jul 5 9:56 am — Jul 20 9:56 am, 42°59'N, 96°02'W. Weather by CustomWeather, © 2019

Note: Actual official high and low records may vary slightly from our data, if they occured in-between our weather recording intervals... More about our weather records

Advertising

42°59'N, 96°02'W Weather History for the Previous 24 Hours

Scroll right to see more
 ConditionsComfort  
Time TempWeatherWind HumidityBarometerVisibility
9:56 am
Sat, Jul 20
61 °FThundershowers. More clouds than sun.23 mph78%29.85 "Hg10 mi
9:19 am61 °FThunderstorms. Fog.32 mph83%29.87 "Hg3 mi
8:41 am60 °FThunderstorms. Fog.39 mph93%29.88 "Hg1 mi
8:16 am64 °FStrong thunderstorms. Fog.44 mph87%29.96 "Hg1 mi
7:56 am75 °FOvercast.13 mph82%29.78 "Hg10 mi
7:03 am75 °FOvercast.15 mph85%29.74 "Hg10 mi
6:56 am75 °FOvercast.14 mph85%29.69 "Hg10 mi
5:56 am76 °FOvercast.13 mph85%29.66 "Hg10 mi
5:05 am76 °FMostly cloudy.7 mph88%29.73 "Hg10 mi
4:56 am76 °FPassing clouds.10 mph88%29.70 "Hg10 mi
3:56 am77 °FClear.10 mph85%29.69 "Hg10 mi
2:56 am77 °FClear.13 mph85%29.70 "Hg10 mi
1:56 am77 °FClear.8 mph85%29.72 "Hg10 mi
12:56 am79 °FPassing clouds.13 mph82%29.72 "Hg10 mi
11:56 pm
Fri, Jul 19
80 °FPassing clouds.12 mph81%29.72 "Hg10 mi
10:56 pm82 °FPartly cloudy.18 mph82%29.71 "Hg10 mi
9:56 pm85 °FPassing clouds.6 mph80%29.68 "Hg10 mi
8:56 pm87 °FScattered clouds.8 mph77%29.66 "Hg10 mi
7:56 pm92 °FPassing clouds.5 mph62%29.63 "Hg10 mi
6:56 pm94 °FScattered clouds.9 mph58%29.63 "Hg10 mi
5:56 pm95 °FPassing clouds.10 mph56%29.63 "Hg10 mi
4:56 pm94 °FPassing clouds.8 mph56%29.63 "Hg10 mi
3:56 pm94 °FPassing clouds.9 mph58%29.62 "Hg10 mi
2:56 pm93 °FPassing clouds.12 mph60%29.62 "Hg10 mi
1:56 pm92 °FPassing clouds.8 mph62%29.62 "Hg10 mi
12:56 pm90 °FPassing clouds.15 mph68%29.61 "Hg10 mi
11:56 am88 °FPassing clouds.18 mph67%29.61 "Hg10 mi
Weather by CustomWeather, © 2019

See weather overview